Regional Weather Roundup
Issued by NWS

Home | Current Version | Previous Version | Graphics & Text | Print | Product List | Glossary Off
Versions: 1 2 3 4 5 6 7 8 9 10 11 12 13 14 15 16 17 18 19 20 21 22 23 24 25 26 27 28 29 30 31 32 33 34 35 36 37 38 39 40 41 42 43 44 45 46 47 48 49 50

000
ASUS43 KDTX 040001
RWRMI
MICHIGAN HOURLY REGIONAL WEATHER ROUNDUP
NATIONAL WEATHER SERVICE DETROIT/PONTIAC MI
800 PM EDT FRI JUL 03 2015

NOTE: "FAIR" INDICATES FEW OR NO CLOUDS BELOW 12,000 FEET WITH NO
SIGNIFICANT WEATHER AND/OR OBSTRUCTION TO VISIBILITY.

MIZ047>049-052>055-059>063-066>070-074>076-081>083-040100-
SOUTHEAST LOWER MICHIGAN

CITY           SKY/WX    TMP DP  RH WIND       PRES   REMARKS
ADRIAN         SUNNY     69  55  60 SE5       29.92F
6HR MIN TEMP:  69; 6HR MAX TEMP:  75;

ALMA           MOSUNNY   72  46  38 N3        29.92F
ANN ARBOR      SUNNY     70  58  65 S6        29.91S
BAD AXE        MOSUNNY   69  49  49 N5        29.93S
CARO           MOSUNNY   68  53  58 N5        29.92S
DETROIT CITY   MOSUNNY   70  50  49 SE6       29.92S
6HR MIN TEMP:  70; 6HR MAX TEMP:  73;

DETROIT        PTSUNNY   71  53  52 S7        29.92S
6HR MIN TEMP:  71; 6HR MAX TEMP:  77;

FLINT          SUNNY     75  46  35 NW6       29.92S
6HR MIN TEMP:  72; 6HR MAX TEMP:  78;

GROSSE ILE     SUNNY     70  55  60 CALM      29.91S
HILLSDALE      SUNNY     71  55  58 CALM      29.93S
HOWELL         SUNNY     71  51  48 E3        29.92S
6HR MIN TEMP:  71; 6HR MAX TEMP:  73;


CITY           SKY/WX    TMP DP  RH WIND       PRES   REMARKS
JACKSON        SUNNY     70  55  59 E5        29.92S
6HR MIN TEMP:  70; 6HR MAX TEMP:  74;

LAMBERTVILLE   SUNNY     70  53  55 E3        29.93S
6HR MIN TEMP:  70; 6HR MAX TEMP:  74;

LANSING        SUNNY     72  49  44 N5        29.93R
6HR MIN TEMP:  71; 6HR MAX TEMP:  77;

LAPEER         FAIR      71  49  46 CALM      29.92S
MASON          SUNNY     69  56  64 CALM      29.92S
MONROE         SUNNY     68  53  58 CALM      29.91S
MT. CLEMENS    MOSUNNY   69  56  62 SE5       29.90S
6HR MIN TEMP:  69; 6HR MAX TEMP:  73;

PONTIAC        PTSUNNY   72  50  45 NW5       29.92R
6HR MIN TEMP:  71; 6HR MAX TEMP:  75;

PORT HOPE        N/A     63  54  72 E6        29.92S
6HR MIN TEMP:  63; 6HR MAX TEMP:  66;

PORT HURON     PTSUNNY   70  59  68 N3        29.92S
TRI CITIES     MOSUNNY   73  43  33 E3        29.93S
6HR MIN TEMP:  73; 6HR MAX TEMP:  77;

MIDLAND        FAIR      69  54  57 CALM      29.91F
TROY           SUNNY     73  53  48 SE3       29.93S
SAGINAW HB     MOSUNNY   70  45  40 N5        29.92S
$$
MIZ043>046-050>051-056>058-064>065-071>073-077>080-040100-
SOUTHWEST LOWER MICHIGAN

CITY           SKY/WX    TMP DP  RH WIND       PRES   REMARKS
BATTLE CREEK   SUNNY     75  52  44 N3        29.92S
6HR MIN TEMP:  72; 6HR MAX TEMP:  77;

BENTON HARBOR  SUNNY     66  58  75 VRB3      29.93S
6HR MIN TEMP:  66; 6HR MAX TEMP:  73;

BIG RAPIDS     SUNNY     71  50  47 CALM      29.92S
6HR MIN TEMP:  71; 6HR MAX TEMP:  76;

COLDWATER      SUNNY     70  54  56 N3        29.92S
6HR MIN TEMP:  70; 6HR MAX TEMP:  74;

FREMONT        FAIR      68  46  43 W6        29.92S
HOLLAND        SUNNY     70  53  54 W6        29.94R
6HR MIN TEMP:  70; 6HR MAX TEMP:  76;

GRAND RAPIDS   MOSUNNY   73  51  46 E5        29.92S
6HR MIN TEMP:  71; 6HR MAX TEMP:  76;

IONIA          FAIR      71  52  51 E3        29.91F
KALAMAZOO      SUNNY     75  52  44 CALM      29.92S
6HR MIN TEMP:  72; 6HR MAX TEMP:  76;

LUDINGTON      PTSUNNY   68  50  51 SW5       29.93F
6HR MIN TEMP:  66; 6HR MAX TEMP:  71;

MARSHALL       SUNNY     72  55  55 CALM      29.92S
MOUNT PLEASANT SUNNY     71  52  50 CALM      29.92S
6HR MIN TEMP:  70; 6HR MAX TEMP:  75;

MUSKEGON       PTSUNNY   68  48  48 NW5       29.93S
6HR MIN TEMP:  68; 6HR MAX TEMP:  76;

SOUTH HAVEN    SUNNY     66  56  70 N3        29.93S
$$
MIZ016>042-040100-
NORTHERN LOWER MICHIGAN

CITY           SKY/WX    TMP DP  RH WIND       PRES   REMARKS
ALPENA         PTSUNNY   70  49  47 S8        29.91R
6HR MIN TEMP:  70; 6HR MAX TEMP:  78;

BEAVER ISLAND  CLOUDY    60  55  83 SW5       29.90F
6HR MIN TEMP:  60; 6HR MAX TEMP:  68;

BELLAIRE       PTSUNNY   71  52  51 CALM      29.91S
6HR MIN TEMP:  71; 6HR MAX TEMP:  76;

CADILLAC       MOSUNNY   69  53  57 W5        29.93S
CHARLEVOIX     CLOUDY    69  48  46 SW7       29.94S
FRANKFORT      PTSUNNY   68  41  37 S3        29.92S
GAYLORD        MOSUNNY   69  51  52 W5        29.93R
6HR MIN TEMP:  69; 6HR MAX TEMP:  74;

GRAYLING       MOSUNNY   72  54  53 W3        29.93S
6HR MIN TEMP:  71; 6HR MAX TEMP:  76;

HARBOR SPRINGS PTSUNNY   68  53  57 W5        29.92R
HOUGHTON LAKE  SUNNY     70  52  52 S5        29.93R
6HR MIN TEMP:  70; 6HR MAX TEMP:  74;

MANISTEE       PTSUNNY   66  46  48 W3        29.93S
OSCODA         MOSUNNY   67  50  53 S6        29.91S
PELLSTON       CLOUDY    68  50  52 VRB6      29.91F
6HR MIN TEMP:  68; 6HR MAX TEMP:  72;

ROGERS CITY    PTSUNNY   67  55  64 CALM      29.92R
TRAVERSE CITY  PTSUNNY   72  48  42 SW7       29.90S
6HR MIN TEMP:  72; 6HR MAX TEMP:  77;

$$
MIZ007>008-015-040100-
EASTERN UPPER MICHIGAN

CITY           SKY/WX    TMP DP  RH WIND       PRES   REMARKS
KINROSS        PTSUNNY   63  55  77 SW3       29.89F
6HR MIN TEMP:  63; 6HR MAX TEMP:  70;

MACKINAC ISLAN CLOUDY    60  56  85 W8        29.90F
6HR MIN TEMP:  58; 6HR MAX TEMP:  68;

NEWBERRY       CLOUDY    59  54  83 S13       29.88S
6HR MIN TEMP:  59; 6HR MAX TEMP:  69;

S. S. MARIE    CLOUDY    65  54  67 SW7       29.88R
6HR MIN TEMP:  65; 6HR MAX TEMP:  73;

MUNISING         N/A     71  60  68 S6        29.83S
6HR MIN TEMP:  69; 6HR MAX TEMP:  75; 6HR PCP:  0.01;

$$
MIZ004>006-011>014-085-040100-
CENTRAL UPPER MICHIGAN

CITY           SKY/WX    TMP DP  RH WIND       PRES   REMARKS
MANISTIQUE     CLOUDY    58  53  83 S9        29.88S
6HR MIN TEMP:  58; 6HR MAX TEMP:  64;

ESCANABA       MOSUNNY   70  59  68 S7        29.85S
6HR MIN TEMP:  66; 6HR MAX TEMP:  72;

MENOMINEE      SUNNY     73  54  49 SW6       29.86F
6HR MIN TEMP:  72; 6HR MAX TEMP:  73;

SAWYER-GWINN   MOSUNNY   73  59  60 W8        29.86S
$$
MIZ001>003-009>011-084-040100-
WESTERN UPPER MICHIGAN

CITY           SKY/WX    TMP DP  RH WIND       PRES   REMARKS
IRON MOUNTAIN  SUNNY     73  57  57 W6        29.86S
6HR MIN TEMP:  71; 6HR MAX TEMP:  75; 6HR PCP: TRACE;

HOUGHTON       SUNNY     68  58  70 NW13      29.85R
6HR MIN TEMP:  68; 6HR MAX TEMP:  74;

COPPER HARBOR    N/A     66  58  75 NW7       29.84F
6HR MIN TEMP:  53; 6HR MAX TEMP:  73;

IRONWOOD       PTSUNNY   70  66  88 N6        29.85R THUNDER
6HR MIN TEMP:  70; 6HR MAX TEMP:  75;

$$

ABBREVIATIONS USED IN REMARKS
   TC - TEMPERATURE IN CELSIUS
  WCI - WIND CHILL INDEX
   HX - HEAT INDEX
  VSB - VISIBILITY




USA.gov is the U.S. government's official web portal to all federal, state and local government web resources and services.